Location: Cahas Mountain Overlook
(37.0833°N, 80.1000°W)
Time: 00:53:33
(UTC-05:00)

A-11 Canister half - Pass Details

Date: 06 December 2023
Orbit: 1512 x 1687 km, 47.2° (Epoch: 01 March)

Event Time Altitude Azimuth Distance (km) Brightness Sun altitude
Exits shadow 06:41:19 - 301° (WNW) 4,064 10.5 -7.7°
Reaches altitude 10° 06:41:50 10° 300° (WNW) 3,906 10.5 -7.6°
Maximum altitude 06:51:48 70° 220° (SW) 1,767 9.3 -5.8°
Drops below altitude 10° 07:01:53 10° 139° (SE) 3,939 12.5 -4.0°
Sets 07:05:03 0° 137° (SE) 4,920 13.2 -3.4°
